OBJECT A, 57424

Orbit data source: Space-Track

You're viewing an Uncataloged Satellite

Recently launched and/or uncataloged satellites may have evolving metadata. Metadata may include but not limited to: Owner, Maufacturer, Bus, Motor, and Mission.

OBJECT A, 57424 is a satellite owned by Yinhe (CN) in SSO that was launched on Sun, 23 Jul 2023 UTC via a CHANG ZHENG 2D launch vehicle from the Taiyaun Space Center, China (TSC). Unknown objects in Earth's orbit typically refer to objects detected orbiting the Earth but have not yet been identified or cataloged. These objects could be anything from previously untracked satellites, spent rocket stages, debris from satellite collisions, or even natural meteoroids temporarily captured by Earth's gravity.

Loading next visibility...
Identifier
57424, 2023-104A
Orbit
SSO
Country
Flag of CNCN / PRC
Related business
Manufacturer
Yinhe
Mission
Operational Commercial Radar Imaging
Bus & Motor
Unknown
Mass
~300 kg wet, ~300 kg dry
Launch date (UTC)
2023-07-23 (3 years ago)
Launch vehicle
CHANG ZHENG 2D
Launch site
Taiyaun Space Center, China (TSC)
Object type
Unknown
Shape & HBR
Box + 2 Pan, 0.8 m
Radar Cross Section
0.363 m², Large (>1 m²)

Expand to show TLE details & history
Last TLE update: 5 hours ago

TLE from 5 hours ago
0 OBJECT A
1 57424U 23104A   26126.52993719  .00010337  00000-0  31471-3 0  9997
2 57424  97.2709 195.3796 0005910 260.6284  99.4292 15.34167947155655
Epoch: 2026-05-06T12:43Z
TLE epoch observation values (Epoch: 2026-05-06T12:43:06.573Z)
Latitude
0.00008°
Longitude
140.21309°
Altitude
467.171 km
Speed
7.632 km/s
True Right ascension
13h 01m 31s
True Declination
0° 00' 00"
Sunlit
Object was in full shadow at epoch
Visualization orbit readout
Latitude
Unknown
Longitude
Unknown
Altitude
Unknown
Speed
Unknown
Apparent Right ascension
Unknown
Apparent Declination
Unknown
Sunlit
N/A
Visualization observer readout
Local Sidereal Time
01:41:43
Azimuth
Unknown
Elevation
Unknown
Doppler factor
Unknown
Orbital elements
Apogee altitude
464.376 km
Perigee altitude
456.293 km
Semi-major axis
6,838.471 km
Eccentricity
0.00059
Inclination
97.2709°
RAAN
195.3796°
Arg. of periapsis
260.6284°
True anomaly
99.496°
Mean anomaly
99.4292°
Eccentric anomaly
99.4626°
Mean motion
3.838 °/min
Orbital period
93.8 mins
BSTAR
0.00031471
Loading maneuver chart data...
Computing Atmospheric mass density...
Loading historical data...
Loading historical data...
Loading historical data...
Loading historical data...
Loading historical data...
Loading historical data...
Loading historical data...

Documentation

Showing up to 5 results
|